Voltar ao catálogo

DELTA 1 DEB

AtivoLEO
NORAD 10844·DEBRIS·🇺🇸 United States

Lançado Jul 29, 1976 de Vandenberg Space Force Base

Loading…

Próximas Passagens (próximas 24 horas)

TLE

AtualizadoSource: Space-Track

Época: Sep 14, 2026, 10:08 UTC

1 10844U 76077CQ  26257.42246921 -.00002720  00000-0 -25212-2 0  9993
2 10844 101.2173 324.8409 0113163  17.0932  46.9334 13.78146871423241

Acompanhe DELTA 1 DEB em tempo real com AllMySat

Download on the App Store